DW8065 Weather Reports


Display with metric or nautical units.
time (UTC)temp
F
wind
direction
speed
MPH
gust
MPH
rain 1hr
in
rain 24hr
in
rain mn
in
humidity
%
barometer
mb
20260905151511 68 326 10.0 14.0 0.00 0.00 0.00 72 1010.7
20260905150010 67 315 8.0 15.0 0.00 0.00 0.00 76 1010.6
20260905144508 67 300 5.0 11.0 0.00 0.00 0.00 75 1010.5
20260905143017 67 333 7.0 12.0 0.00 0.00 0.00 76 1010.5
20260905141503 66 359 8.0 13.0 0.00 0.00 0.00 75 1010.6
20260905140108 66 351 8.0 12.0 0.00 0.00 0.00 78 1010.7
20260905134558 65 333 10.0 16.0 0.00 0.00 0.00 80 1010.5
20260905133105 65 328 4.0 10.0 0.00 0.00 0.00 81 1010.4
20260905131607 65 341 5.0 11.0 0.00 0.00 0.00 82 1010.3
20260905130053 65 300 4.0 12.0 0.00 0.00 0.00 82 1010.3
20260905124553 64 296 3.0 10.0 0.00 0.00 0.00 84 1010.4
20260905123050 64 333 4.0 10.0 0.00 0.00 0.00 84 1010.3
20260905121553 63 305 2.0 7.0 0.00 0.00 0.00 86 1010.2
20260905120048 63 321 1.0 5.0 0.00 0.00 0.00 86 1010.4
20260905114546 63 345 3.0 6.0 0.00 0.00 0.00 86 1010.2
20260905113044 63 333 2.0 6.0 0.00 0.00 0.00 87 1010.0
20260905111602 63 338 4.0 8.0 0.00 0.00 0.00 86 1009.9
20260905110041 63 326 2.0 7.0 0.00 0.00 0.00 85 1009.9
20260905104541 63 328 3.0 7.0 0.00 0.00 0.00 86 1009.8
20260905103041 63 299 3.0 7.0 0.00 0.00 0.00 87 1009.7
20260905101544 62 318 4.0 9.0 0.00 0.00 0.00 87 1009.6
20260905100038 63 319 6.0 12.0 0.00 0.00 0.00 87 1009.3
20260905094537 63 322 5.0 9.0 0.00 0.01 0.00 86 1009.2
20260905093040 63 339 4.0 12.0 0.00 0.01 0.00 85 1009.3
20260905091535 63 351 3.0 7.0 0.00 0.01 0.00 86 1009.2
20260905090033 63 326 4.0 7.0 0.00 0.01 0.00 88 1009.2
20260905084533 63 347 4.0 6.0 0.00 0.01 0.00 88 1009.2
20260905083032 62 356 3.0 6.0 0.00 0.01 0.00 90 1009.2
20260905081531 61 269 0.0 2.0 0.00 0.01 0.00 90 1009.1
20260905080029 61 285 0.0 3.0 0.00 0.01 0.00 90 1009.2
20260905074528 61 335 1.0 5.0 0.00 0.01 0.00 90 1009.2
20260905073029 61 285 0.0 2.0 0.00 0.01 0.00 90 1009.2
20260905071538 62 349 0.0 6.0 0.00 0.01 0.00 89 1009.3
20260905070021 63 317 2.0 6.0 0.00 0.01 0.00 88 1009.4
20260905064519 63 319 0.0 3.0 0.00 0.01 0.00 87 1009.5
20260905063016 64 268 0.0 2.0 0.00 0.01 0.00 84 1009.7
20260905061518 64 262 0.0 3.0 0.00 0.01 0.00 83 1009.7
20260905060017 64 255 0.0 3.0 0.00 0.01 0.00 84 1009.7
20260905054535 64 283 0.0 3.0 0.00 0.01 0.00 83 1009.6
20260905053013 64 291 1.0 6.0 0.00 0.01 0.00 83 1009.3
20260905051511 65 314 4.0 7.0 0.00 0.01 0.00 83 1009.6
20260905050013 64 333 2.0 6.0 0.00 0.01 0.00 84 1009.6
20260905044509 64 290 2.0 5.0 0.00 0.01 0.00 84 1009.7
20260905043008 64 290 1.0 4.0 0.00 0.01 0.00 84 1009.8
20260905041507 64 316 0.0 3.0 0.00 0.01 0.00 84 1009.8
20260905040003 65 315 2.0 6.0 0.00 0.01 0.00 83 1009.7
20260905034502 64 283 2.0 5.0 0.00 0.01 0.01 82 1009.7
20260905033002 63 274 0.0 1.0 0.00 0.01 0.01 83 1009.7
20260905031501 64 205 0.0 0.0 0.00 0.01 0.01 83 1009.9
20260905030001 65 188 0.0 2.0 0.00 0.01 0.01 80 1009.9
20260905024622 65 187 0.0 1.0 0.00 0.01 0.01 80 1010.0
20260905023121 66 273 0.0 2.0 0.00 0.01 0.01 79 1010.2
20260905021605 66 276 0.0 2.0 0.00 0.01 0.01 76 1010.2
20260905020108 67 252 0.0 3.0 0.00 0.01 0.01 73 1010.1
20260905014601 68 271 0.0 4.0 0.00 0.01 0.01 72 1010.2
20260905013056 69 333 1.0 8.0 0.00 0.01 0.01 72 1010.2
20260905011605 69 326 2.0 9.0 0.00 0.01 0.01 72 1010.3
20260905010054 69 281 1.0 7.0 0.00 0.01 0.01 75 1010.2
20260905004555 68 262 0.0 2.0 0.00 0.01 0.01 76 1010.3
20260905003054 68 295 1.0 6.0 0.00 0.01 0.01 77 1010.3
20260905001553 68 271 0.0 1.0 0.00 0.01 0.01 74 1010.1
20260905000053 68 287 1.0 3.0 0.00 0.01 0.01 74 1010.0
20260904234556 68 272 0.0 4.0 0.00 0.01 0.01 75 1009.8
20260904233053 68 274 0.0 3.0 0.00 0.01 0.01 75 1009.6
20260904231551 68 274 0.0 1.0 0.00 0.01 0.01 75 1009.6
20260904230050 69 276 0.0 1.0 0.00 0.01 0.01 72 1009.7
20260904224603 70 275 0.0 3.0 0.00 0.01 0.01 70 1009.7
20260904223050 71 295 0.0 3.0 0.00 0.01 0.01 69 1009.6
20260904221554 71 314 1.0 5.0 0.00 0.01 0.01 68 1009.5
20260904220048 72 279 1.0 5.0 0.00 0.01 0.01 65 1009.5
20260904214549 72 274 0.0 6.0 0.00 0.01 0.01 65 1009.4
20260904213046 73 275 3.0 7.0 0.00 0.01 0.01 63 1009.4
20260904211546 73 323 6.0 12.0 0.00 0.01 0.01 62 1009.5
20260904210052 73 333 6.0 16.0 0.00 0.01 0.01 61 1009.4
20260904204545 74 325 6.0 16.0 0.00 0.01 0.01 63 1009.3
20260904203044 74 325 4.0 8.0 0.00 0.01 0.01 65 1009.3
20260904201558 74 19 6.0 10.0 0.00 0.01 0.01 63 1009.3
20260904200042 74 313 7.0 10.0 0.00 0.01 0.01 60 1009.2
20260904194553 74 333 8.0 13.0 0.00 0.01 0.01 59 1009.4
20260904193041 74 326 9.0 20.0 0.00 0.01 0.01 60 1009.3
20260904191539 74 334 13.0 18.0 0.00 0.01 0.01 60 1009.5
20260904190039 75 312 6.0 12.0 0.00 0.01 0.01 57 1009.5
20260904184535 74 342 4.0 13.0 0.00 0.01 0.01 59 1009.5
20260904183034 73 336 7.0 17.0 0.00 0.01 0.01 60 1009.7
20260904181533 74 336 11.0 18.0 0.00 0.01 0.01 60 1009.7
20260904180034 74 311 10.0 17.0 0.00 0.01 0.01 61 1009.8
20260904174532 74 329 12.0 22.0 0.00 0.01 0.01 61 1009.6
20260904173029 73 5 7.0 12.0 0.00 0.01 0.01 63 1009.7
20260904171531 74 275 5.0 16.0 0.00 0.01 0.01 64 1009.9
20260904170027 74 334 10.0 19.0 0.00 0.01 0.01 63 1009.7
20260904164524 73 313 12.0 17.0 0.00 0.01 0.01 64 1009.8
20260904163029 73 338 9.0 14.0 0.00 0.01 0.01 68 1010.0
20260904161521 73 21 8.0 16.0 0.00 0.01 0.01 66 1010.0
20260904160018 73 294 5.0 17.0 0.00 0.01 0.01 73 1010.2
20260904154516 72 321 8.0 15.0 0.00 0.01 0.01 70 1010.1
20260904153020 72 311 8.0 15.0 0.00 0.01 0.01 74 1010.4